Weather History for KLMT - June, 2013

Change the Weather History Date:

Wednesday, June 12, 2013

  Actual Average Record
Temperature  
Mean Temperature 52 °F 57 °F  
Max Temperature 69 °F 73 °F 88 °F (1986)
Min Temperature 35 °F 41 °F 28 °F (1952)
Degree Days  
Heating Degree Days 13 8  
Month to date heating degree days 37 114  
Since 1 June heating degree days 37 114  
Since 1 July heating degree days 6494 6870  
Cooling Degree Days 0 0  
Month to date cooling degree days 18 0  
Year to date cooling degree days 18 1  
Since 1 June cooling degree days 18 0  
Growing Degree Days 1 (Base 50)    
Moisture  
Dew Point 32 °F    
Average Humidity 49    
Maximum Humidity 92    
Minimum Humidity 22    
Precipitation  
Precipitation 0.00 in 0.03 in 0.61 in (1954)
Month to date precipitation 0.00 0.24  
Year to date precipitation 3.39 8.03  
Sea Level Pressure  
Sea Level Pressure 30.01 in    
Wind  
Wind Speed 8 mph (WNW)    
Max Wind Speed 22 mph    
Max Gust Speed 33 mph    
Visibility 10 miles    
Events      
T = Trace of Precipitation, MM = Missing Value Source: NWS Daily Summary

Daily Weather History Graph

Daily Weather History Graph

Search for Another Location

Airport or City:

Trip Planner

Search our weather history database for the weather conditions in past years. The results will help you decide how hot, cold, wet, or windy it might be!

Date:

Astronomy

Jun. 12, 2013 Rise Set
Actual Time 5:30 AM PDT 8:43 PM PDT
Civil Twilight 4:55 AM PDT 9:18 PM PDT
Nautical Twilight 4:11 AM PDT 10:02 PM PDT
Astronomical Twilight 3:17 AM PDT 10:56 PM PDT
Moon 9:17 AM PDT (6/12) 11:18 PM PDT (6/12)
Length of Visible Light 16h 22m
Length of Day
15h 13m
Waxing Crescent, 15% of the Moon is Illuminated
Jun 12
Waxing Crescent
Jun 16
First Quarter
Jun 23
Full
Jun 29
Last Quarter
Jul 8
New

Hourly Weather History & Observations

Time (PDT) Temp. Windchill Dew Point Humidity Pressure Visibility Wind Dir Wind Speed Gust Speed Precip Events Conditions
12:53 AM 50.0 °F - 37.0 °F 61% 29.99 in 10.0 mi NW 8.1 mph - N/A   Mostly Cloudy
1:53 AM 46.0 °F 43.1 °F 35.1 °F 66% 30.00 in 10.0 mi West 5.8 mph - N/A   Mostly Cloudy
2:53 AM 43.0 °F 41.3 °F 36.0 °F 76% 30.00 in 10.0 mi West 3.5 mph - N/A   Scattered Clouds
3:53 AM 39.9 °F 34.5 °F 34.0 °F 79% 30.00 in 10.0 mi WNW 8.1 mph - N/A   Clear
4:53 AM 37.9 °F 33.5 °F 33.1 °F 83% 30.01 in 10.0 mi WNW 5.8 mph - N/A   Clear
5:53 AM 36.0 °F - 33.1 °F 89% 30.03 in 10.0 mi Calm Calm - N/A   Mostly Cloudy
6:53 AM 42.1 °F - 37.0 °F 82% 30.03 in 10.0 mi Calm Calm - N/A   Scattered Clouds
7:53 AM 48.9 °F - 35.1 °F 59% 30.01 in 10.0 mi NNW 10.4 mph 16.1 mph N/A   Scattered Clouds
8:53 AM 51.1 °F - 35.1 °F 54% 30.02 in 10.0 mi NW 12.7 mph - N/A   Scattered Clouds
9:53 AM 54.0 °F - 35.1 °F 49% 30.02 in 10.0 mi NW 9.2 mph - N/A   Partly Cloudy
10:53 AM 57.0 °F - 28.0 °F 33% 30.01 in 10.0 mi NW 11.5 mph - N/A   Partly Cloudy
11:53 AM 61.0 °F - 26.1 °F 26% 30.00 in 10.0 mi NNW 8.1 mph - N/A   Partly Cloudy
12:53 PM 61.0 °F - 27.0 °F 27% 29.99 in 10.0 mi Variable 5.8 mph - N/A   Clear
1:53 PM 63.0 °F - 28.9 °F 28% 29.98 in 10.0 mi Calm Calm - N/A   Partly Cloudy
2:40 PM 66.2 °F - 24.8 °F 21% 30.04 in 10.0 mi WSW 13.8 mph 20.7 mph N/A   Clear
2:53 PM 66.9 °F - 28.9 °F 24% 29.98 in 10.0 mi North 8.1 mph 23.0 mph N/A   Partly Cloudy
3:53 PM 66.0 °F - 27.0 °F 23% 29.98 in 10.0 mi NNW 15.0 mph 23.0 mph N/A   Clear
4:53 PM 64.9 °F - 28.9 °F 26% 30.00 in 10.0 mi NNW 17.3 mph - N/A   Clear
5:53 PM 64.0 °F - 25.0 °F 23% 30.00 in 10.0 mi NW 17.3 mph - N/A   Clear
6:53 PM 62.1 °F - 30.0 °F 30% 30.00 in 10.0 mi NNW 12.7 mph 23.0 mph N/A   Clear
7:53 PM 57.0 °F - 35.1 °F 44% 30.01 in 10.0 mi West 15.0 mph - N/A   Clear
8:53 PM 50.0 °F - 34.0 °F 54% 30.04 in 10.0 mi WNW 4.6 mph - N/A   Clear
9:53 PM 51.1 °F - 28.9 °F 43% 30.05 in 10.0 mi WNW 13.8 mph - N/A   Clear
10:53 PM 46.0 °F 42.5 °F 30.9 °F 56% 30.07 in 10.0 mi WSW 6.9 mph - N/A   Scattered Clouds
11:53 PM 42.1 °F 40.2 °F 35.1 °F 76% 30.07 in 10.0 mi SW 3.5 mph - N/A   Scattered Clouds